| time (UTC) | temp F | wind direction | speed MPH | gust MPH | rain 1hr in | rain 24hr in | rain mn in | humidity % | barometer mb |
| 20260502163050 | 68 | 307 | 6.0 | 13.0 | 0.00 | 1.93 | 0.02 | 68 | 1019.6 |
| 20260502161544 | 67 | 63 | 4.0 | 12.0 | 0.00 | 1.93 | 0.02 | 74 | 1019.6 |
| 20260502151556 | 64 | 310 | 3.0 | 10.0 | 0.00 | 1.99 | 0.02 | 82 | 1019.4 |
| 20260502123045 | 52 | 165 | 2.0 | 6.0 | 0.00 | 2.32 | 0.02 | 99 | 1017.6 |
| 20260502121542 | 52 | 298 | 2.0 | 8.0 | 0.00 | 2.32 | 0.02 | 98 | 1017.3 |
| 20260502114545 | 50 | 221 | 1.0 | 4.0 | 0.00 | 2.49 | 0.02 | 98 | 1017.0 |
| 20260502113048 | 50 | 338 | 1.0 | 3.0 | 0.00 | 2.49 | 0.02 | 98 | 1016.7 |
| 20260502111540 | 51 | 300 | 1.0 | 3.0 | 0.00 | 2.49 | 0.02 | 98 | 1016.8 |
| 20260502110044 | 51 | 111 | 1.0 | 4.0 | 0.00 | 2.49 | 0.02 | 98 | 1016.6 |
| 20260502104549 | 51 | 265 | 1.0 | 4.0 | 0.00 | 2.56 | 0.02 | 98 | 1016.4 |
| 20260502103041 | 51 | 340 | 1.0 | 5.0 | 0.00 | 2.56 | 0.02 | 98 | 1016.1 |
| 20260502101609 | 51 | 26 | 2.0 | 6.0 | 0.00 | 2.56 | 0.02 | 98 | 1015.9 |
| 20260502070053 | 51 | 25 | 2.0 | 10.0 | 0.00 | 2.72 | 0.02 | 99 | 1015.8 |
| 20260502064539 | 51 | 17 | 2.0 | 11.0 | 0.01 | 2.72 | 0.02 | 99 | 1015.9 |
| 20260502063053 | 51 | 41 | 2.0 | 9.0 | 0.01 | 2.72 | 0.02 | 99 | 1016.1 |
| 20260502061543 | 51 | 309 | 2.0 | 8.0 | 0.02 | 2.72 | 0.02 | 99 | 1016.2 |
| 20260502060041 | 52 | 23 | 2.0 | 12.0 | 0.02 | 2.72 | 0.02 | 99 | 1016.1 |
| 20260502054541 | 52 | 319 | 4.0 | 13.0 | 0.04 | 2.71 | 0.01 | 99 | 1015.5 |
| 20260502053037 | 52 | 36 | 2.0 | 9.0 | 0.05 | 2.71 | 0.01 | 99 | 1015.6 |
| 20260502051603 | 52 | 19 | 2.0 | 7.0 | 0.04 | 2.70 | 0.00 | 99 | 1015.7 |
| 20260502050045 | 53 | 334 | 3.0 | 12.0 | 0.05 | 2.70 | 0.00 | 99 | 1015.5 |
| 20260502044545 | 53 | 265 | 2.0 | 10.0 | 0.02 | 2.67 | 2.67 | 99 | 1014.6 |
| 20260502043039 | 53 | 59 | 2.0 | 11.0 | 0.02 | 2.66 | 2.66 | 99 | 1014.9 |
| 20260502041540 | 54 | 55 | 3.0 | 9.0 | 0.06 | 2.66 | 2.66 | 99 | 1015.1 |
| 20260502040055 | 54 | 90 | 3.0 | 10.0 | 0.08 | 2.65 | 2.65 | 99 | 1014.9 |
| 20260502034544 | 54 | 342 | 3.0 | 8.0 | 0.09 | 2.65 | 2.65 | 99 | 1014.6 |
| 20260502033048 | 54 | 46 | 2.0 | 13.0 | 0.09 | 2.64 | 2.64 | 99 | 1014.9 |
| 20260502031542 | 54 | 15 | 3.0 | 9.0 | 0.06 | 2.60 | 2.60 | 99 | 1015.1 |
| 20260502030044 | 54 | 279 | 4.0 | 12.0 | 0.05 | 2.57 | 2.57 | 99 | 1014.8 |
| 20260502024543 | 54 | 61 | 2.0 | 8.0 | 0.05 | 2.56 | 2.56 | 99 | 1013.9 |
| 20260502023055 | 54 | 302 | 4.0 | 10.0 | 0.04 | 2.55 | 2.55 | 99 | 1013.3 |
| 20260502021542 | 54 | 9 | 3.0 | 10.0 | 0.03 | 2.54 | 2.54 | 99 | 1013.5 |
| 20260502020048 | 54 | 13 | 3.0 | 11.0 | 0.01 | 2.52 | 2.52 | 99 | 1013.2 |
| 20260502014538 | 54 | 341 | 2.0 | 12.0 | 0.00 | 2.51 | 2.51 | 99 | 1013.0 |
| 20260502013058 | 54 | 34 | 3.0 | 12.0 | 0.00 | 2.51 | 2.51 | 99 | 1012.6 |
| 20260502011547 | 54 | 130 | 3.0 | 11.0 | 0.00 | 2.51 | 2.51 | 99 | 1012.0 |
| 20260502010044 | 55 | 288 | 4.0 | 14.0 | 0.01 | 2.51 | 2.51 | 99 | 1012.0 |
| 20260502004546 | 55 | 341 | 4.0 | 12.0 | 0.05 | 2.51 | 2.51 | 99 | 1011.6 |
| 20260502003039 | 55 | 327 | 3.0 | 13.0 | 0.08 | 2.51 | 2.51 | 99 | 1011.6 |
| 20260502001603 | 56 | 325 | 4.0 | 13.0 | 0.13 | 2.51 | 2.51 | 99 | 1011.3 |
| 20260502000044 | 57 | 309 | 3.0 | 11.0 | 0.21 | 2.50 | 2.50 | 99 | 1011.7 |
| 20260501234550 | 57 | 347 | 2.0 | 8.0 | 0.25 | 2.45 | 2.45 | 99 | 1011.7 |
| 20260501233053 | 57 | 30 | 2.0 | 9.0 | 0.35 | 2.43 | 2.43 | 99 | 1011.0 |
| 20260501231542 | 57 | 72 | 2.0 | 6.0 | 0.40 | 2.36 | 2.36 | 99 | 1012.5 |
| 20260501230039 | 57 | 9 | 2.0 | 10.0 | 0.43 | 2.29 | 2.29 | 99 | 1013.1 |
| 20260501224538 | 57 | 325 | 3.0 | 6.0 | 0.40 | 2.19 | 2.19 | 99 | 1012.7 |
| 20260501223044 | 57 | 309 | 1.0 | 4.0 | 0.35 | 2.07 | 2.07 | 99 | 1012.9 |
| 20260501221543 | 57 | 51 | 2.0 | 6.0 | 0.33 | 1.96 | 1.96 | 99 | 1012.7 |
| 20260501220114 | 57 | 49 | 3.0 | 8.0 | 0.35 | 1.86 | 1.86 | 99 | 1011.7 |
| 20260501214541 | 58 | 74 | 2.0 | 9.0 | 0.36 | 1.80 | 1.79 | 99 | 1011.6 |
| 20260501213039 | 58 | 119 | 1.0 | 4.0 | 0.34 | 1.73 | 1.72 | 99 | 1011.7 |
| 20260501211545 | 58 | 0 | 1.0 | 9.0 | 0.29 | 1.64 | 1.63 | 99 | 1011.0 |
| 20260501204548 | 58 | 310 | 2.0 | 10.0 | 0.11 | 1.44 | 1.43 | 99 | 1010.0 |
| 20260501203043 | 58 | 344 | 3.0 | 13.0 | 0.07 | 1.39 | 1.38 | 99 | 1010.1 |
| 20260501201542 | 58 | 54 | 4.0 | 12.0 | 0.05 | 1.35 | 1.34 | 99 | 1011.1 |
| 20260501200037 | 58 | 40 | 3.0 | 10.0 | 0.07 | 1.34 | 1.33 | 99 | 1010.9 |
| 20260501194539 | 58 | 38 | 4.0 | 11.0 | 0.11 | 1.33 | 1.32 | 99 | 1010.9 |
| 20260501193045 | 58 | 76 | 3.0 | 11.0 | 0.17 | 1.32 | 1.31 | 99 | 1011.6 |
| 20260501191543 | 58 | 9 | 4.0 | 10.0 | 0.24 | 1.30 | 1.29 | 99 | 1011.4 |
| 20260501190042 | 58 | 9 | 4.0 | 14.0 | 0.35 | 1.26 | 1.25 | 98 | 1010.4 |
| 20260501184541 | 59 | 45 | 5.0 | 13.0 | 0.35 | 1.47 | 1.20 | 98 | 1012.3 |
| 20260501183056 | 59 | 328 | 3.0 | 12.0 | 0.29 | 1.40 | 1.13 | 99 | 1012.7 |
| 20260501181556 | 59 | 51 | 4.0 | 22.0 | 0.21 | 1.32 | 1.04 | 99 | 1012.1 |